Location: Bayshore Village Mobile Home Park
(26.6945°N, 81.8642°W)
Time: 14:05:49
(UTC+00:00)

Cosmos 1943 Rocket - Pass Details

Date: 17 June 2021
Orbit: 813 x 843 km, 71.0° (Epoch: 26 July)

Event Time Altitude Azimuth Distance (km) Brightness Sun altitude
Rises 05:44:40 0° 359° (N) 3,337 6.2 -39.8°
Reaches altitude 10° 05:47:39 10° 15° (NNE) 2,404 5.2 -39.7°
Enters shadow 05:50:06 19° 39° (NE) 1,862 4.4 -39.6°
